Location: Freistadt
(48.5112°N, 14.5013°E)
Time: 09:25:30
(UTC+01:00)

N. Korean satellite - Pass Details

Date: 06 December 2022
Orbit: 407 x 442 km, 97.3° (Epoch: 04 February)

Event Time Altitude Azimuth Distance (km) Brightness Sun altitude
Rises 16:51:08 0° 183° (S) 2,455 10.6 -7.1°
Reaches altitude 10° 16:53:14 10° 192° (SSW) 1,596 9.7 -7.4°
Maximum altitude 16:56:28 39° 262° (W) 714 8.1 -7.9°
Drops below altitude 10° 16:59:46 10° 333° (NNW) 1,631 9.3 -8.4°
Sets 17:01:57 0° 341° (NNW) 2,517 10.1 -8.7°
